Location: Adaghas
(31.2259°N, 9.0496°W)
Time: 02:59:38
(UTC+00:00)

ARGOS - Pass Details

Date: 18 September 2020
Orbit: 821 x 834 km, 98.4° (Epoch: 23 October)

Event Time Altitude Azimuth Distance (km) Brightness Sun altitude
Exits shadow 19:12:07 - 133° (SE) 3,023 5.6 -8.2°
Reaches altitude 10° 19:13:55 10° 124° (SE) 2,411 5.0 -8.6°
Maximum altitude 19:18:15 26° 69° (ENE) 1,572 4.1 -9.5°
Drops below altitude 10° 19:22:36 10° 15° (NNE) 2,424 5.5 -10.4°
Sets 19:25:17 0° 3° (N) 3,362 6.4 -11.0°
